QPF
0.01 0.01 0.01 0.01 0.02 0.02 0.02 0.01 0.02 0.01 0.01 0.01 0.01 0.01 0.01 0.01 0.02 0.02 0.02 0.01 0.01 0.01 0.02 0.01 0.01 0.00 0.00 0.01 0.01 0.01 0.01 0.01 0.01 0.00 0.00 0.00 0.01 0.04 0.04 0.02 0.01 0.01 0.02
0.00 0.00 0.01 0.01 0.01 0.02 0.01 0.02 0.02 0.01 0.01 0.01 0.01 0.01 0.01 0.01 0.01 0.01 0.01 0.01 0.00 0.00 0.00 0.00 0.01 0.00 0.01 0.01 0.01 0.01 0.01 0.01 0.01 0.01 0.00 0.00 0.01 0.03 0.05 0.03 0.01 0.01 0.01
0.00 0.00 0.01 0.01 0.01 0.01 0.01 0.01 0.01 0.01 0.01 0.01 0.01 0.00 0.01 0.01 0.01 0.00 0.00 0.00 0.00 0.00 0.00 0.00 0.00 0.00 0.00 0.01 0.01 0.01 0.01 0.01 0.01 0.00 0.00 0.00 0.01 0.03 0.05 0.04 0.02 0.02 0.02
0.01 0.01 0.01 0.01 0.01 0.02 0.02 0.02 0.02 0.02 0.01 0.01 0.01 0.01 0.01 0.01 0.01 0.00 0.00 0.00 0.01 0.01 0.01 0.01 0.01 0.01 0.01 0.01 0.01 0.01 0.00 0.01 0.01 0.00 0.00 0.00 0.00 0.02 0.05 0.05 0.04 0.03 0.03
0.02 0.01 0.02 0.02 0.02 0.02 0.02 0.02 0.02 0.02 0.02 0.02 0.01 0.01 0.01 0.01 0.00 0.01 0.01 0.01 0.01 0.01 0.01 0.01 0.01 0.01 0.01 0.01 0.01 0.01 0.01 0.01 0.01 0.01 0.01 0.00 0.00 0.02 0.04 0.05 0.05 0.04 0.03
0.02 0.01 0.02 0.02 0.02 0.02 0.03 0.03 0.02 0.02 0.02 0.02 0.02 0.02 0.02 0.01 0.01 0.02 0.02 0.02 0.01 0.01 0.01 0.01 0.01 0.01 0.01 0.02 0.02 0.03 0.02 0.02 0.01 0.01 0.01 0.01 0.01 0.02 0.04 0.05 0.05 0.06 0.05
0.02 0.02 0.02 0.02 0.02 0.02 0.02 0.03 0.03 0.03 0.03 0.03 0.02 0.02 0.02 0.02 0.03 0.03 0.02 0.02 0.01 0.01 0.01 0.01 0.01 0.01 0.02 0.02 0.03 0.03 0.03 0.02 0.01 0.01 0.01 0.01 0.01 0.01 0.04 0.05 0.04 0.04 0.04
0.01 0.02 0.04 0.03 0.02 0.03 0.03 0.03 0.03 0.03 0.02 0.02 0.01 0.02 0.02 0.02 0.04 0.04 0.03 0.02 0.01 0.01 0.01 0.00 0.01 0.01 0.02 0.03 0.03 0.04 0.03 0.01 0.01 0.00 0.01 0.02 0.01 0.02 0.04 0.05 0.03 0.03 0.02
0.02 0.03 0.03 0.02 0.02 0.03 0.03 0.03 0.03 0.03 0.03 0.03 0.02 0.02 0.03 0.03 0.04 0.04 0.03 0.02 0.02 0.01 0.01 0.00 0.00 0.00 0.01 0.03 0.04 0.05 0.03 0.01 0.01 0.01 0.01 0.02 0.02 0.03 0.04 0.04 0.03 0.03 0.02
0.01 0.02 0.03 0.03 0.03 0.03 0.03 0.03 0.03 0.04 0.04 0.04 0.04 0.03 0.03 0.03 0.03 0.03 0.02 0.01 0.01 0.01 0.01 0.01 0.00 0.01 0.01 0.02 0.04 0.04 0.03 0.01 0.01 0.00 0.00 0.01 0.02 0.02 0.03 0.03 0.04 0.03 0.02
0.01 0.01 0.02 0.02 0.02 0.02 0.03 0.03 0.03 0.04 0.04 0.03 0.03 0.03 0.03 0.03 0.03 0.02 0.02 0.01 0.01 0.01 0.01 0.01 0.01 0.01 0.02 0.02 0.04 0.03 0.02 0.02 0.02 0.01 0.01 0.01 0.01 0.01 0.02 0.03 0.04 0.03 0.03
0.01 0.01 0.01 0.02 0.02 0.02 0.02 0.02 0.02 0.02 0.03 0.03 0.03 0.03 0.03 0.03 0.03 0.03 0.02 0.02 0.02 0.01 0.01 0.01 0.01 0.02 0.02 0.02 0.02 0.01 0.01 0.02 0.01 0.01 0.01 0.01 0.01 0.01 0.02 0.02 0.03 0.03 0.02
0.02 0.01 0.01 0.02 0.02 0.02 0.02 0.02 0.02 0.02 0.02 0.02 0.03 0.03 0.04 0.04 0.05 0.04 0.04 0.03 0.02 0.01 0.01 0.01 0.01 0.01 0.01 0.01 0.01 0.01 0.01 0.01 0.01 0.01 0.01 0.01 0.01 0.01 0.02 0.02 0.02 0.02 0.01
0.03 0.03 0.02 0.02 0.01 0.02 0.02 0.02 0.02 0.02 0.02 0.03 0.03 0.03 0.04 0.05 0.05 0.05 0.03 0.02 0.02 0.01 0.01 0.02 0.02 0.02 0.01 0.01 0.00 0.01 0.01 0.01 0.01 0.01 0.01 0.01 0.02 0.02 0.02 0.03 0.02 0.03 0.02
0.03 0.03 0.02 0.02 0.02 0.02 0.02 0.02 0.02 0.02 0.02 0.03 0.02 0.03 0.04 0.04 0.04 0.04 0.03 0.03 0.02 0.02 0.02 0.02 0.02 0.02 0.02 0.01 0.01 0.00 0.01 0.01 0.01 0.01 0.01 0.01 0.02 0.02 0.03 0.04 0.03 0.03 0.03
0.02 0.02 0.02 0.02 0.02 0.02 0.02 0.02 0.02 0.02 0.02 0.02 0.02 0.03 0.03 0.03 0.03 0.03 0.03 0.02 0.02 0.02 0.02 0.02 0.02 0.03 0.02 0.02 0.02 0.02 0.01 0.01 0.01 0.01 0.01 0.01 0.02 0.02 0.03 0.05 0.05 0.04 0.04
0.02 0.02 0.02 0.01 0.02 0.02 0.02 0.01 0.01 0.01 0.01 0.01 0.02 0.02 0.03 0.02 0.02 0.03 0.03 0.03 0.02 0.02 0.02 0.02 0.02 0.03 0.03 0.03 0.02 0.02 0.02 0.01 0.01 0.01 0.01 0.01 0.02 0.02 0.03 0.03 0.04 0.04 0.03
0.02 0.02 0.02 0.02 0.01 0.01 0.01 0.01 0.01 0.01 0.01 0.01 0.02 0.02 0.02 0.03 0.02 0.02 0.03 0.02 0.02 0.02 0.02 0.02 0.02 0.02 0.02 0.03 0.03 0.03 0.03 0.03 0.02 0.01 0.01 0.01 0.02 0.02 0.03 0.03 0.02 0.02 0.02
0.01 0.02 0.01 0.01 0.01 0.01 0.01 0.01 0.00 0.00 0.01 0.01 0.01 0.02 0.02 0.02 0.02 0.02 0.02 0.01 0.01 0.01 0.01 0.01 0.01 0.01 0.02 0.02 0.03 0.03 0.04 0.04 0.04 0.03 0.02 0.01 0.01 0.01 0.02 0.02 0.02 0.02 0.03
0.01 0.01 0.01 0.01 0.01 0.01 0.01 0.01 0.00 0.00 0.01 0.01 0.01 0.01 0.02 0.02 0.02 0.02 0.02 0.02 0.01 0.01 0.02 0.02 0.02 0.01 0.01 0.02 0.03 0.03 0.03 0.03 0.03 0.03 0.02 0.02 0.01 0.01 0.01 0.02 0.02 0.02 0.02
0.01 0.01 0.01 0.01 0.01 0.01 0.01 0.01 0.01 0.01 0.01 0.01 0.01 0.01 0.01 0.01 0.01 0.02 0.02 0.02 0.02 0.02 0.02 0.02 0.02 0.02 0.02 0.01 0.01 0.01 0.02 0.03 0.03 0.04 0.03 0.03 0.02 0.02 0.01 0.01 0.01 0.01 0.01
0.01 0.01 0.01 0.01 0.01 0.01 0.01 0.01 0.01 0.01 0.01 0.01 0.01 0.00 0.01 0.01 0.01 0.01 0.01 0.02 0.02 0.02 0.02 0.02 0.02 0.01 0.02 0.02 0.01 0.02 0.02 0.02 0.02 0.03 0.04 0.04 0.04 0.03 0.03 0.02 0.02 0.01 0.01
0.01 0.01 0.01 0.01 0.01 0.01 0.02 0.02 0.02 0.02 0.02 0.01 0.01 0.01 0.01 0.01 0.01 0.01 0.01 0.01 0.01 0.01 0.01 0.01 0.01 0.01 0.01 0.01 0.01 0.01 0.01 0.02 0.02 0.03 0.03 0.04 0.04 0.04 0.04 0.04 0.03 0.02 0.01
0.01 0.01 0.01 0.01 0.01 0.01 0.02 0.02 0.02 0.01 0.01 0.01 0.01 0.01 0.01 0.01 0.01 0.01 0.01 0.00 0.01 0.01 0.01 0.01 0.01 0.01 0.01 0.01 0.01 0.01 0.02 0.02 0.02 0.03 0.04 0.05 0.05 0.05 0.05 0.05 0.05 0.04 0.03
0.01 0.01 0.01 0.01 0.01 0.02 0.02 0.02 0.02 0.02 0.01 0.01 0.00 0.00 0.00 0.00 0.01 0.01 0.01 0.01 0.01 0.01 0.01 0.01 0.00 0.00 0.00 0.01 0.01 0.01 0.01 0.02 0.02 0.02 0.02 0.03 0.04 0.05 0.06 0.05 0.05 0.04 0.04
0.00 0.00 0.01 0.01 0.01 0.01 0.02 0.02 0.01 0.01 0.02 0.01 0.00 0.00 0.00 0.01 0.01 0.01 0.01 0.02 0.01 0.01 0.01 0.01 0.01 0.01 0.01 0.01 0.01 0.01 0.01 0.01 0.01 0.01 0.01 0.01 0.02 0.03 0.04 0.04 0.04 0.04 0.04
MSLP
1019.77 1019.66 1019.54 1019.38 1019.20 1019.00 1018.80 1018.63 1018.51 1018.47 1018.51 1018.63 1018.81 1019.04 1019.28 1019.52 1019.72 1019.89 1020.01 1020.09 1020.14 1020.17 1020.17 1020.15 1020.11 1020.05 1019.97 1019.88 1019.78 1019.69 1019.61 1019.55 1019.51 1019.48 1019.45 1019.42 1019.36 1019.28 1019.18 1019.05 1018.92 1018.80 1018.71
1020.45 1020.35 1020.22 1020.06 1019.87 1019.66 1019.45 1019.26 1019.12 1019.04 1019.05 1019.13 1019.28 1019.47 1019.68 1019.89 1020.07 1020.21 1020.32 1020.39 1020.42 1020.43 1020.41 1020.37 1020.31 1020.22 1020.13 1020.02 1019.92 1019.82 1019.75 1019.69 1019.66 1019.63 1019.61 1019.58 1019.51 1019.42 1019.30 1019.16 1019.01 1018.88 1018.78
1021.14 1021.05 1020.94 1020.78 1020.60 1020.38 1020.16 1019.96 1019.81 1019.71 1019.69 1019.74 1019.85 1020.01 1020.17 1020.34 1020.49 1020.61 1020.69 1020.74 1020.75 1020.74 1020.71 1020.66 1020.58 1020.50 1020.40 1020.29 1020.19 1020.10 1020.03 1019.99 1019.95 1019.93 1019.91 1019.86 1019.78 1019.68 1019.53 1019.37 1019.20 1019.04 1018.91
1021.76 1021.70 1021.61 1021.47 1021.30 1021.09 1020.88 1020.68 1020.52 1020.42 1020.38 1020.41 1020.49 1020.61 1020.74 1020.86 1020.97 1021.06 1021.11 1021.14 1021.14 1021.12 1021.08 1021.03 1020.95 1020.87 1020.77 1020.68 1020.58 1020.50 1020.44 1020.39 1020.36 1020.34 1020.30 1020.24 1020.15 1020.03 1019.87 1019.69 1019.50 1019.32 1019.16
1022.28 1022.25 1022.19 1022.08 1021.92 1021.74 1021.55 1021.37 1021.22 1021.13 1021.09 1021.10 1021.16 1021.24 1021.34 1021.43 1021.50 1021.56 1021.59 1021.59 1021.58 1021.56 1021.52 1021.46 1021.39 1021.32 1021.23 1021.13 1021.04 1020.96 1020.90 1020.85 1020.81 1020.77 1020.73 1020.66 1020.57 1020.44 1020.27 1020.09 1019.89 1019.70 1019.53
1022.70 1022.71 1022.67 1022.59 1022.46 1022.31 1022.15 1022.00 1021.88 1021.80 1021.77 1021.78 1021.83 1021.89 1021.95 1022.01 1022.05 1022.07 1022.07 1022.06 1022.04 1022.01 1021.97 1021.92 1021.86 1021.78 1021.69 1021.60 1021.50 1021.41 1021.33 1021.27 1021.21 1021.17 1021.11 1021.05 1020.96 1020.84 1020.69 1020.52 1020.34 1020.15 1019.98
1023.05 1023.09 1023.08 1023.02 1022.92 1022.80 1022.67 1022.56 1022.48 1022.43 1022.42 1022.43 1022.46 1022.50 1022.54 1022.56 1022.56 1022.55 1022.53 1022.50 1022.47 1022.43 1022.39 1022.34 1022.28 1022.20 1022.11 1022.00 1021.89 1021.78 1021.68 1021.59 1021.52 1021.45 1021.40 1021.34 1021.26 1021.17 1021.06 1020.92 1020.78 1020.62 1020.47
1023.35 1023.42 1023.43 1023.40 1023.32 1023.23 1023.14 1023.07 1023.02 1023.00 1023.00 1023.02 1023.04 1023.06 1023.06 1023.04 1023.00 1022.96 1022.90 1022.85 1022.80 1022.76 1022.71 1022.66 1022.59 1022.51 1022.40 1022.28 1022.14 1022.01 1021.88 1021.76 1021.67 1021.60 1021.54 1021.49 1021.45 1021.39 1021.32 1021.24 1021.15 1021.04 1020.93
1023.64 1023.72 1023.75 1023.73 1023.68 1023.61 1023.55 1023.51 1023.49 1023.49 1023.50 1023.51 1023.52 1023.50 1023.46 1023.40 1023.32 1023.23 1023.14 1023.06 1023.00 1022.94 1022.89 1022.83 1022.76 1022.67 1022.55 1022.41 1022.25 1022.09 1021.93 1021.79 1021.68 1021.60 1021.55 1021.52 1021.50 1021.48 1021.46 1021.44 1021.40 1021.34 1021.28
1023.90 1023.98 1024.01 1024.00 1023.96 1023.92 1023.89 1023.87 1023.86 1023.87 1023.88 1023.87 1023.84 1023.79 1023.70 1023.58 1023.46 1023.33 1023.20 1023.10 1023.02 1022.95 1022.90 1022.84 1022.77 1022.67 1022.54 1022.39 1022.21 1022.03 1021.85 1021.70 1021.57 1021.49 1021.44 1021.42 1021.42 1021.44 1021.46 1021.48 1021.48 1021.48 1021.46
1024.07 1024.15 1024.17 1024.16 1024.14 1024.11 1024.09 1024.08 1024.09 1024.09 1024.08 1024.04 1023.97 1023.87 1023.72 1023.56 1023.38 1023.21 1023.06 1022.93 1022.84 1022.77 1022.72 1022.66 1022.60 1022.51 1022.38 1022.23 1022.05 1021.86 1021.67 1021.51 1021.38 1021.29 1021.25 1021.23 1021.25 1021.29 1021.33 1021.36 1021.40 1021.42 1021.44
1024.09 1024.16 1024.17 1024.16 1024.14 1024.12 1024.11 1024.11 1024.11 1024.10 1024.06 1023.98 1023.86 1023.70 1023.50 1023.29 1023.06 1022.86 1022.68 1022.54 1022.45 1022.39 1022.35 1022.31 1022.26 1022.19 1022.08 1021.94 1021.77 1021.58 1021.41 1021.25 1021.12 1021.04 1020.99 1020.98 1020.99 1021.02 1021.06 1021.10 1021.14 1021.17 1021.20
1023.90 1023.95 1023.96 1023.95 1023.93 1023.92 1023.91 1023.91 1023.90 1023.86 1023.78 1023.67 1023.50 1023.28 1023.03 1022.77 1022.51 1022.28 1022.09 1021.95 1021.86 1021.82 1021.80 1021.78 1021.76 1021.71 1021.62 1021.51 1021.36 1021.20 1021.05 1020.90 1020.79 1020.71 1020.66 1020.65 1020.65 1020.67 1020.69 1020.71 1020.74 1020.76 1020.79
1023.46 1023.50 1023.51 1023.50 1023.50 1023.49 1023.49 1023.47 1023.44 1023.38 1023.27 1023.11 1022.89 1022.63 1022.34 1022.04 1021.76 1021.52 1021.32 1021.19 1021.11 1021.08 1021.08 1021.10 1021.10 1021.07 1021.02 1020.93 1020.82 1020.69 1020.56 1020.44 1020.34 1020.27 1020.24 1020.22 1020.21 1020.21 1020.21 1020.21 1020.21 1020.22 1020.24
1022.81 1022.85 1022.86 1022.87 1022.87 1022.87 1022.87 1022.85 1022.81 1022.72 1022.57 1022.37 1022.11 1021.82 1021.49 1021.17 1020.88 1020.63 1020.44 1020.31 1020.25 1020.23 1020.25 1020.27 1020.29 1020.28 1020.25 1020.18 1020.10 1019.99 1019.89 1019.80 1019.73 1019.69 1019.66 1019.65 1019.65 1019.64 1019.63 1019.62 1019.60 1019.60 1019.63
1022.04 1022.08 1022.11 1022.13 1022.15 1022.17 1022.17 1022.15 1022.08 1021.97 1021.80 1021.56 1021.28 1020.95 1020.61 1020.28 1019.98 1019.72 1019.53 1019.41 1019.34 1019.33 1019.34 1019.36 1019.37 1019.36 1019.33 1019.27 1019.19 1019.10 1019.02 1018.96 1018.92 1018.90 1018.90 1018.91 1018.93 1018.94 1018.94 1018.94 1018.94 1018.95 1018.99
1021.30 1021.35 1021.40 1021.44 1021.48 1021.51 1021.52 1021.49 1021.42 1021.28 1021.09 1020.83 1020.52 1020.18 1019.82 1019.48 1019.18 1018.92 1018.72 1018.59 1018.51 1018.47 1018.45 1018.44 1018.41 1018.37 1018.30 1018.22 1018.13 1018.04 1017.96 1017.91 1017.90 1017.91 1017.94 1017.99 1018.05 1018.10 1018.15 1018.19 1018.23 1018.28 1018.36
1020.71 1020.79 1020.86 1020.92 1020.98 1021.02 1021.04 1021.01 1020.92 1020.78 1020.56 1020.29 1019.97 1019.62 1019.26 1018.91 1018.60 1018.33 1018.12 1017.96 1017.84 1017.75 1017.68 1017.60 1017.51 1017.40 1017.26 1017.12 1016.98 1016.86 1016.77 1016.72 1016.71 1016.74 1016.82 1016.92 1017.04 1017.16 1017.27 1017.39 1017.50 1017.63 1017.77
1020.41 1020.50 1020.59 1020.68 1020.75 1020.81 1020.82 1020.79 1020.70 1020.55 1020.33 1020.05 1019.72 1019.37 1019.01 1018.66 1018.34 1018.06 1017.82 1017.62 1017.44 1017.29 1017.13 1016.95 1016.76 1016.55 1016.32 1016.09 1015.87 1015.68 1015.54 1015.46 1015.44 1015.49 1015.60 1015.75 1015.93 1016.13 1016.34 1016.55 1016.76 1016.98 1017.21
1020.43 1020.54 1020.65 1020.75 1020.83 1020.90 1020.92 1020.89 1020.79 1020.64 1020.42 1020.14 1019.81 1019.46 1019.11 1018.76 1018.43 1018.14 1017.86 1017.61 1017.37 1017.13 1016.87 1016.58 1016.27 1015.93 1015.58 1015.23 1014.90 1014.62 1014.40 1014.27 1014.22 1014.25 1014.37 1014.56 1014.80 1015.08 1015.38 1015.70 1016.01 1016.34 1016.66
1020.76 1020.88 1020.99 1021.10 1021.20 1021.26 1021.28 1021.26 1021.17 1021.01 1020.80 1020.53 1020.22 1019.89 1019.54 1019.20 1018.87 1018.56 1018.26 1017.95 1017.64 1017.31 1016.94 1016.54 1016.09 1015.62 1015.13 1014.64 1014.19 1013.79 1013.48 1013.26 1013.14 1013.14 1013.25 1013.45 1013.73 1014.07 1014.45 1014.85 1015.27 1015.69 1016.11
1021.31 1021.43 1021.55 1021.66 1021.75 1021.82 1021.85 1021.82 1021.74 1021.60 1021.40 1021.16 1020.87 1020.56 1020.23 1019.90 1019.58 1019.26 1018.93 1018.58 1018.21 1017.79 1017.33 1016.81 1016.24 1015.63 1015.01 1014.39 1013.80 1013.28 1012.84 1012.52 1012.32 1012.26 1012.32 1012.50 1012.79 1013.16 1013.59 1014.06 1014.55 1015.06 1015.55
1021.97 1022.08 1022.19 1022.31 1022.40 1022.47 1022.50 1022.49 1022.42 1022.30 1022.12 1021.90 1021.64 1021.36 1021.06 1020.76 1020.44 1020.11 1019.77 1019.39 1018.97 1018.49 1017.94 1017.33 1016.66 1015.94 1015.20 1014.46 1013.74 1013.10 1012.54 1012.11 1011.81 1011.66 1011.65 1011.78 1012.04 1012.40 1012.84 1013.34 1013.87 1014.42 1014.97
1022.61 1022.72 1022.83 1022.94 1023.03 1023.11 1023.14 1023.14 1023.09 1022.98 1022.83 1022.64 1022.42 1022.17 1021.90 1021.62 1021.31 1020.99 1020.64 1020.24 1019.78 1019.26 1018.66 1017.98 1017.24 1016.44 1015.60 1014.76 1013.95 1013.20 1012.54 1012.00 1011.59 1011.34 1011.24 1011.30 1011.49 1011.81 1012.22 1012.71 1013.25 1013.81 1014.37
1023.17 1023.27 1023.38 1023.49 1023.59 1023.66 1023.71 1023.72 1023.68 1023.60 1023.47 1023.30 1023.11 1022.88 1022.64 1022.38 1022.09 1021.77 1021.41 1021.00 1020.52 1019.97 1019.34 1018.63 1017.84 1016.99 1016.10 1015.20 1014.32 1013.49 1012.75 1012.12 1011.62 1011.27 1011.07 1011.04 1011.15 1011.39 1011.74 1012.18 1012.69 1013.22 1013.76
1023.62 1023.72 1023.83 1023.94 1024.04 1024.12 1024.18 1024.19 1024.16 1024.10 1023.99 1023.84 1023.66 1023.45 1023.22 1022.96 1022.67 1022.35 1021.99 1021.57 1021.08 1020.51 1019.87 1019.14 1018.34 1017.47 1016.57 1015.64 1014.73 1013.87 1013.07 1012.38 1011.81 1011.37 1011.09 1010.96 1010.98 1011.13 1011.40 1011.76 1012.19 1012.67 1013.16
Thickness
5683 5679 5677 5673 5671 5668 5665 5662 5660 5657 5654 5652 5649 5646 5643 5641 5638 5636 5633 5631 5629 5627 5625 5623 5621 5619 5617 5615 5614 5612 5609 5607 5605 5605 5605 5606 5607 5607 5608 5608 5609 5610 5612
5679 5675 5672 5669 5666 5663 5661 5658 5656 5653 5650 5648 5645 5642 5639 5637 5634 5632 5629 5626 5624 5621 5619 5618 5616 5615 5612 5610 5608 5607 5605 5603 5601 5600 5599 5600 5600 5601 5601 5602 5603 5604 5605
5673 5670 5667 5664 5661 5659 5656 5654 5651 5648 5646 5643 5640 5638 5635 5632 5630 5628 5625 5622 5620 5617 5615 5613 5611 5609 5606 5605 5603 5602 5600 5599 5596 5595 5593 5593 5593 5593 5594 5595 5596 5597 5598
5668 5664 5662 5660 5657 5655 5652 5649 5647 5644 5641 5638 5635 5633 5631 5628 5626 5623 5621 5618 5615 5613 5610 5608 5605 5604 5602 5600 5599 5596 5594 5592 5590 5588 5587 5586 5585 5586 5586 5586 5587 5588 5590
5662 5659 5657 5655 5652 5649 5647 5644 5641 5638 5636 5633 5630 5627 5625 5623 5621 5619 5616 5613 5609 5606 5604 5602 5601 5599 5598 5596 5595 5591 5589 5586 5583 5581 5580 5579 5578 5578 5578 5578 5579 5580 5582
5657 5654 5652 5649 5646 5643 5641 5637 5634 5632 5629 5626 5624 5621 5619 5618 5617 5614 5611 5607 5604 5600 5597 5596 5595 5594 5593 5591 5590 5588 5585 5582 5578 5576 5574 5573 5572 5572 5571 5571 5571 5571 5573
5651 5648 5645 5642 5639 5636 5634 5630 5628 5625 5622 5619 5617 5615 5613 5612 5610 5608 5605 5601 5598 5594 5592 5589 5589 5588 5585 5583 5582 5581 5579 5578 5577 5574 5570 5569 5568 5567 5565 5564 5564 5564 5565
5645 5642 5639 5637 5634 5630 5627 5623 5620 5618 5615 5613 5610 5608 5606 5606 5604 5601 5598 5594 5590 5588 5586 5584 5581 5579 5579 5576 5574 5572 5571 5570 5570 5569 5567 5566 5565 5563 5561 5561 5559 5558 5558
5637 5635 5633 5631 5628 5624 5621 5618 5614 5611 5608 5606 5604 5601 5599 5598 5597 5594 5590 5585 5582 5580 5579 5577 5575 5573 5573 5570 5567 5564 5563 5563 5563 5562 5561 5560 5559 5557 5556 5553 5551 5550 5551
5631 5629 5627 5624 5622 5619 5616 5612 5609 5605 5602 5599 5596 5594 5592 5591 5590 5587 5583 5578 5575 5573 5571 5569 5568 5567 5566 5563 5560 5558 5555 5555 5555 5554 5552 5551 5550 5549 5548 5547 5545 5543 5542
5623 5622 5619 5616 5614 5611 5608 5605 5601 5597 5594 5590 5588 5587 5585 5584 5583 5580 5576 5572 5569 5566 5564 5562 5561 5561 5559 5557 5554 5552 5551 5549 5547 5545 5544 5543 5542 5541 5540 5539 5539 5537 5536
5614 5612 5610 5607 5605 5602 5599 5596 5592 5589 5585 5582 5579 5577 5576 5575 5574 5572 5570 5566 5564 5560 5558 5557 5555 5553 5551 5549 5547 5546 5544 5542 5538 5536 5535 5534 5533 5533 5532 5532 5531 5531 5531
5604 5602 5600 5597 5595 5592 5589 5585 5582 5579 5576 5572 5570 5568 5566 5565 5565 5564 5561 5559 5556 5553 5551 5550 5548 5546 5543 5541 5539 5538 5535 5532 5529 5528 5527 5526 5525 5525 5524 5524 5523 5524 5523
5594 5591 5589 5586 5584 5581 5579 5577 5573 5570 5567 5564 5562 5559 5557 5555 5554 5554 5552 5549 5547 5545 5542 5541 5539 5536 5534 5532 5530 5528 5526 5524 5522 5520 5519 5518 5517 5517 5516 5515 5514 5514 5514
5583 5581 5579 5576 5574 5570 5568 5566 5565 5562 5560 5557 5555 5552 5549 5547 5548 5547 5544 5542 5539 5536 5533 5530 5527 5525 5523 5521 5519 5518 5516 5515 5513 5512 5511 5509 5508 5508 5507 5507 5506 5505 5504
5573 5571 5568 5566 5563 5560 5557 5554 5553 5552 5550 5548 5546 5544 5543 5542 5540 5538 5536 5533 5531 5528 5524 5521 5519 5516 5514 5512 5510 5509 5507 5506 5505 5504 5503 5501 5500 5500 5499 5498 5497 5496 5495
5564 5562 5559 5557 5554 5551 5548 5545 5542 5540 5539 5538 5536 5535 5534 5533 5531 5528 5525 5523 5520 5518 5514 5512 5510 5508 5506 5504 5502 5501 5500 5498 5496 5495 5495 5493 5492 5491 5490 5489 5488 5488 5487
5555 5553 5551 5548 5545 5542 5540 5537 5534 5531 5527 5526 5525 5524 5523 5521 5519 5517 5514 5511 5507 5505 5502 5501 5499 5498 5496 5494 5493 5492 5491 5489 5487 5486 5485 5485 5484 5483 5482 5481 5480 5480 5480
5544 5542 5540 5537 5534 5532 5529 5526 5523 5521 5517 5514 5512 5511 5511 5509 5507 5505 5503 5499 5496 5493 5491 5489 5488 5487 5485 5484 5483 5482 5481 5480 5479 5478 5476 5475 5475 5474 5474 5473 5472 5472 5471
5534 5534 5531 5526 5524 5521 5518 5515 5512 5509 5506 5503 5501 5499 5497 5495 5493 5492 5490 5488 5485 5483 5481 5479 5477 5476 5475 5474 5473 5472 5471 5470 5469 5468 5467 5466 5466 5465 5465 5465 5464 5463 5462
5525 5523 5521 5516 5513 5510 5507 5504 5501 5499 5495 5492 5490 5488 5487 5484 5482 5480 5478 5476 5474 5472 5470 5468 5466 5465 5464 5463 5462 5461 5461 5460 5460 5459 5458 5458 5457 5457 5456 5456 5455 5454 5453
5514 5512 5509 5505 5502 5499 5496 5494 5491 5488 5485 5481 5479 5477 5476 5472 5470 5468 5467 5466 5464 5462 5460 5459 5457 5456 5455 5454 5453 5452 5451 5451 5451 5450 5450 5449 5448 5448 5447 5447 5446 5445 5444
5504 5501 5498 5495 5492 5490 5487 5483 5480 5477 5474 5471 5469 5467 5465 5462 5460 5458 5457 5455 5453 5452 5450 5449 5448 5447 5446 5445 5444 5443 5442 5442 5442 5441 5440 5439 5439 5439 5438 5437 5437 5436 5435
5494 5491 5488 5485 5482 5479 5476 5473 5470 5467 5464 5462 5459 5457 5454 5452 5450 5449 5447 5445 5444 5442 5441 5439 5438 5437 5436 5435 5434 5434 5433 5433 5432 5432 5431 5430 5430 5429 5428 5427 5427 5426 5426
5483 5480 5477 5474 5471 5468 5465 5463 5460 5457 5455 5453 5450 5447 5445 5443 5440 5439 5437 5435 5434 5432 5431 5430 5428 5427 5427 5426 5425 5425 5424 5424 5423 5423 5422 5421 5420 5420 5419 5418 5417 5416 5415
5471 5468 5465 5463 5460 5458 5455 5452 5449 5447 5445 5443 5440 5438 5435 5433 5431 5429 5426 5425 5423 5423 5422 5420 5419 5419 5418 5417 5417 5416 5415 5415 5415 5414 5413 5412 5411 5411 5410 5409 5408 5406 5406